sat.trackr.live / text

‹ back to catalog

STARLINK-1477

NORAD 45754 · 2020-038AA

PAYLOAD ACTIVE UNKNOWN

§ Identity

Operator
Country
US
Launch date
2020-06-13
Launch site
AFETR
Launch vehicle
Mass (kg)
RCS (m²)

Purposes: comms

External: N2YO · Heavens-Above · Gunter

§ Orbital elements

Epoch: 2026-05-24T15:06:12.007296Z

Period
94.85 min
Inclination
53.0462°
Eccentricity
0.0000530
Mean motion
15.18158240 rev/d
Perigee alt
511.0 km
Apogee alt
511.8 km
Semi-major
6,889.5 km
B*
1.1008e-3
RAAN
226.7516°
Arg perigee
292.3381°
Mean anomaly
67.7556°
Rev number
32,805

§ Raw data

STARLINK-14771 45754U 20038AA  26144.62930564  .00022516  00000+0  11008-2 0  99972 45754  53.0462 226.7516 0000530 292.3381  67.7556 15.18158240328051

JSON: /api/v1/satellites/45754 · /tle

For live sub-satellite position, see the globe view (requires WebGL).

§ Visibility from observer

Set your observer location to see the next 7 days of passes ≥ 10°. The values pass through the URL so the page stays shareable.

No JS? Fill the form by hand. The geolocation button needs JavaScript.